Track LAPAN-TUBSAT now! 10-day predictions LAPAN-TUBSAT is classified as:
1 29709U 07001A 25199.93999838 .00000472 00000-0 61401-4 0 9998 2 29709 98.1114 187.1921 0012111 184.0379 176.0739 14.85377782 1679